Weather History for KOZW - January, 2013

Change the Weather History Date:

Friday, January 4, 2013

  Actual Average Record
Temperature  
Mean Temperature 27 °F -  
Max Temperature 30 °F 31 °F 48 °F (2007)
Min Temperature 24 °F 19 °F 6 °F (1999)
Degree Days  
Heating Degree Days 38    
Moisture  
Dew Point 19 °F    
Average Humidity 71    
Maximum Humidity 80    
Minimum Humidity 62    
Precipitation  
Precipitation 0.00 in - - ()
Sea Level Pressure  
Sea Level Pressure 30.06 in    
Wind  
Wind Speed 14 mph (WSW)    
Max Wind Speed 22 mph    
Max Gust Speed 31 mph    
Visibility 10 miles    
Events      
Averages and records for this station are not official NWS values.
T = Trace of Precipitation, MM = Missing Value Source: NWS Daily Summary

Daily Weather History Graph

Daily Weather History Graph

Search for Another Location

Airport or City:

Trip Planner

Search our weather history database for the weather conditions in past years. The results will help you decide how hot, cold, wet, or windy it might be!

Date:

Astronomy

Jan. 04, 2013 Rise Set
Actual Time 8:06 AM EST 5:16 PM EST
Civil Twilight 7:34 AM EST 5:48 PM EST
Nautical Twilight 6:58 AM EST 6:23 PM EST
Astronomical Twilight 6:24 AM EST 6:57 PM EST
Moon No Moon Rise 11:38 AM EST (1/4)
Length of Visible Light 10h 13m
Length of Day
9h 10m
Waning Gibbous, 55% of the Moon is Illuminated
Jan 4
Waning Gibbous
Jan 4
Last Quarter
Jan 11
New
Jan 18
First Quarter
Jan 26
Full

Hourly Weather History & Observations

Time (EST) Temp. Windchill Dew Point Humidity Pressure Visibility Wind Dir Wind Speed Gust Speed Precip Events Conditions
12:14 AM 28.0 °F 19.3 °F 22.5 °F 80% 30.10 in 7.0 mi WSW 9.2 mph - N/A   Overcast
12:34 AM 28.4 °F 19.1 °F 22.8 °F 80% 30.10 in 7.0 mi WSW 10.4 mph - N/A   Overcast
12:55 AM 28.8 °F 19.0 °F 22.1 °F 76% 30.09 in 10.0 mi West 11.5 mph - N/A   Overcast
1:14 AM 28.9 °F 20.4 °F 22.1 °F 76% 30.09 in 10.0 mi WSW 9.2 mph - N/A   Overcast
1:34 AM 28.9 °F 19.8 °F 22.8 °F 78% 30.08 in 7.0 mi WSW 10.4 mph - N/A   Overcast
1:55 AM 29.3 °F 18.6 °F 22.1 °F 75% 30.07 in 10.0 mi WSW 13.8 mph 19.6 mph N/A   Overcast
2:14 AM 29.3 °F 18.6 °F 21.6 °F 73% 30.07 in 10.0 mi WSW 13.8 mph 23.0 mph N/A   Overcast
2:34 AM 28.9 °F 18.6 °F 21.7 °F 74% 30.07 in 10.0 mi WSW 12.7 mph - N/A   Overcast
2:55 AM 28.9 °F 18.2 °F 21.6 °F 74% 30.07 in 10.0 mi WSW 13.8 mph 19.6 mph N/A   Overcast
3:14 AM 28.9 °F 18.2 °F 22.1 °F 76% 30.07 in 10.0 mi WSW 13.8 mph 17.3 mph N/A   Overcast
3:34 AM 28.9 °F 17.7 °F 21.6 °F 74% 30.07 in 10.0 mi WSW 15.0 mph 21.9 mph N/A   Overcast
4:14 AM 28.8 °F 17.5 °F 19.9 °F 70% 30.05 in 10.0 mi WSW 15.0 mph 26.5 mph N/A   Overcast
4:35 AM 28.8 °F 17.9 °F 20.1 °F 70% 30.05 in 10.0 mi WSW 13.8 mph 28.8 mph N/A   Overcast
4:55 AM 28.8 °F 17.0 °F 20.1 °F 70% 30.05 in 10.0 mi WSW 16.1 mph 23.0 mph N/A   Overcast
5:14 AM 28.6 °F 16.0 °F 19.8 °F 70% 30.04 in 10.0 mi WSW 18.4 mph 29.9 mph N/A   Overcast
5:54 AM 28.4 °F 17.0 °F 19.4 °F 69% 30.04 in 10.0 mi WSW 15.0 mph 21.9 mph N/A   Overcast
6:14 AM 27.9 °F 15.9 °F 19.2 °F 70% 30.04 in 10.0 mi WSW 16.1 mph 25.3 mph N/A   Overcast
6:35 AM 27.3 °F 15.6 °F 18.7 °F 70% 30.04 in 10.0 mi WSW 15.0 mph 20.7 mph N/A   Overcast
7:14 AM 27.1 °F 15.9 °F 18.9 °F 71% 30.05 in 10.0 mi WSW 13.8 mph 23.0 mph N/A   Overcast
7:35 AM 26.8 °F 14.9 °F 18.5 °F 71% 30.05 in 10.0 mi WSW 15.0 mph 25.3 mph N/A   Overcast
8:14 AM 26.1 °F 14.5 °F 18.5 °F 73% 30.04 in 10.0 mi SW 13.8 mph 20.7 mph N/A   Overcast
8:35 AM 25.3 °F 14.1 °F 18.0 °F 74% 30.05 in 10.0 mi WSW 12.7 mph - N/A   Mostly Cloudy
8:54 AM 24.8 °F 14.0 °F 18.0 °F 75% 30.05 in 10.0 mi SW 11.5 mph 19.6 mph N/A   Mostly Cloudy
9:14 AM 24.4 °F 13.0 °F 18.0 °F 76% 30.04 in 10.0 mi SW 12.7 mph 20.7 mph N/A   Mostly Cloudy
9:34 AM 24.4 °F 11.9 °F 17.8 °F 76% 30.05 in 10.0 mi WSW 15.0 mph 21.9 mph N/A   Mostly Cloudy
9:54 AM 24.8 °F 11.5 °F 18.1 °F 76% 30.05 in 10.0 mi WSW 17.3 mph 25.3 mph N/A   Overcast
10:15 AM 25.2 °F 12.4 °F 18.1 °F 75% 30.05 in 10.0 mi WSW 16.1 mph 23.0 mph N/A   Overcast
10:34 AM 25.3 °F 11.0 °F 18.3 °F 75% 30.05 in 10.0 mi WSW 20.7 mph 27.6 mph N/A   Overcast
10:54 AM 25.3 °F 12.2 °F 18.5 °F 75% 30.06 in 10.0 mi WSW 17.3 mph 27.6 mph N/A   Overcast
11:15 AM 25.5 °F 11.3 °F 18.5 °F 75% 30.06 in 10.0 mi WSW 20.7 mph 26.5 mph N/A   Overcast
11:34 AM 25.5 °F 12.9 °F 18.5 °F 75% 30.05 in 10.0 mi WSW 16.1 mph 24.2 mph N/A   Overcast
11:55 AM 25.9 °F 12.9 °F 18.7 °F 74% 30.03 in 10.0 mi SW 17.3 mph 23.0 mph N/A   Mostly Cloudy
12:14 PM 27.0 °F 14.7 °F 18.7 °F 71% 30.03 in 10.0 mi WSW 16.1 mph 25.3 mph N/A   Scattered Clouds
12:34 PM 27.5 °F 15.9 °F 18.9 °F 70% 30.02 in 10.0 mi WSW 15.0 mph 20.7 mph N/A   Clear
12:55 PM 28.2 °F 15.2 °F 19.0 °F 68% 30.00 in 10.0 mi WSW 19.6 mph 26.5 mph N/A   Clear
1:14 PM 28.6 °F 16.8 °F 19.2 °F 68% 30.00 in 10.0 mi WSW 16.1 mph 25.3 mph N/A   Clear
1:34 PM 29.1 °F 16.7 °F 19.0 °F 66% 29.98 in 10.0 mi WSW 18.4 mph 27.6 mph N/A   Clear
1:54 PM 29.7 °F 17.4 °F 19.2 °F 65% 29.98 in 10.0 mi WSW 18.4 mph 25.3 mph N/A   Clear
2:14 PM 29.8 °F 17.3 °F 19.2 °F 65% 29.98 in 10.0 mi WSW 19.6 mph 24.2 mph N/A   Clear
2:35 PM 29.8 °F 16.6 °F 18.9 °F 64% 29.98 in 10.0 mi WSW 21.9 mph 31.1 mph N/A   Clear
2:54 PM 30.2 °F 18.1 °F 19.0 °F 63% 29.99 in 10.0 mi WSW 18.4 mph 23.0 mph N/A   Clear
3:14 PM 29.7 °F 16.7 °F 18.5 °F 63% 29.99 in 10.0 mi WSW 20.7 mph 26.5 mph N/A   Clear
3:35 PM 29.7 °F 17.1 °F 18.5 °F 63% 29.99 in 10.0 mi WSW 19.6 mph 27.6 mph N/A   Clear
3:54 PM 29.8 °F 18.9 °F 18.5 °F 63% 30.00 in 10.0 mi WSW 15.0 mph 24.2 mph N/A   Clear
4:14 PM 29.3 °F 18.6 °F 17.8 °F 62% 30.01 in 10.0 mi WSW 13.8 mph 21.9 mph N/A   Clear
4:35 PM 28.9 °F 16.5 °F 17.2 °F 62% 30.02 in 10.0 mi WSW 18.4 mph 23.0 mph N/A   Clear
4:54 PM 28.8 °F 18.4 °F 17.2 °F 62% 30.02 in 10.0 mi WSW 12.7 mph 18.4 mph N/A   Clear
5:14 PM 28.2 °F 17.2 °F 17.4 °F 64% 30.03 in 10.0 mi WSW 13.8 mph 20.7 mph N/A   Clear
5:35 PM 28.0 °F 17.0 °F 17.2 °F 64% 30.04 in 10.0 mi WSW 13.8 mph 19.6 mph N/A   Clear
5:54 PM 28.0 °F 17.0 °F 17.2 °F 64% 30.05 in 10.0 mi WSW 13.8 mph 20.7 mph N/A   Scattered Clouds
6:15 PM 27.7 °F 15.6 °F 17.4 °F 65% 30.05 in 10.0 mi WSW 16.1 mph 20.7 mph N/A   Clear
6:35 PM 27.5 °F 16.3 °F 17.6 °F 66% 30.06 in 10.0 mi WSW 13.8 mph 20.7 mph N/A   Clear
6:54 PM 27.0 °F 16.1 °F 17.2 °F 67% 30.07 in 10.0 mi WSW 12.7 mph - N/A   Clear
7:15 PM 26.6 °F 16.2 °F 16.7 °F 66% 30.07 in 10.0 mi SW 11.5 mph - N/A   Clear
7:34 PM 26.2 °F 14.2 °F 16.7 °F 67% 30.08 in 10.0 mi WSW 15.0 mph - N/A   Clear
7:54 PM 26.1 °F 15.0 °F 16.9 °F 68% 30.08 in 10.0 mi WSW 12.7 mph - N/A   Clear
8:15 PM 25.9 °F 14.3 °F 17.1 °F 69% 30.09 in 10.0 mi WSW 13.8 mph 17.3 mph N/A   Clear
8:34 PM 26.1 °F 14.5 °F 17.4 °F 70% 30.09 in 10.0 mi WSW 13.8 mph - N/A   Clear
8:54 PM 26.1 °F 15.0 °F 17.6 °F 70% 30.09 in 10.0 mi WSW 12.7 mph - N/A   Clear
9:15 PM 26.1 °F 14.5 °F 18.1 °F 72% 30.09 in 10.0 mi WSW 13.8 mph 19.6 mph N/A   Clear
9:34 PM 25.9 °F 16.0 °F 18.3 °F 73% 30.10 in 10.0 mi WSW 10.4 mph 18.4 mph N/A   Clear
9:54 PM 25.7 °F 16.4 °F 18.3 °F 74% 30.11 in 10.0 mi WSW 9.2 mph - N/A   Clear
10:15 PM 25.3 °F 16.0 °F 18.3 °F 75% 30.12 in 10.0 mi WSW 9.2 mph - N/A   Clear
10:34 PM 25.3 °F 16.0 °F 18.7 °F 76% 30.13 in 10.0 mi WSW 9.2 mph - N/A   Clear
10:55 PM 24.8 °F 15.3 °F 18.3 °F 76% 30.13 in 10.0 mi WSW 9.2 mph - N/A   Clear
11:14 PM 24.8 °F 15.3 °F 18.5 °F 77% 30.13 in 10.0 mi WSW 9.2 mph - N/A   Clear
11:34 PM 24.3 °F 15.4 °F 18.5 °F 79% 30.14 in 10.0 mi WSW 8.1 mph - N/A   Clear
11:55 PM 24.3 °F 14.6 °F 18.7 °F 79% 30.15 in 10.0 mi WSW 9.2 mph - N/A   Clear